Location: *
(55.6049°S, 142.1985°W)
Time: 00:39:23
(UTC+00:00)

SL-16 R/B - Pass Details

Date: 12 May 2021
Orbit: 842 x 847 km, 71.0° (Epoch: 18 June)

Event Time Altitude Azimuth Distance (km) Brightness Sun altitude
Exits shadow 12:23:19 25° 112° (ESE) 1,660 4.1 -39.9°
Drops below altitude 10° 12:26:26 10° 84° (E) 2,493 5.1 -39.5°
Sets 12:29:10 0° 73° (ENE) 3,424 5.9 -39.1°
